Vertical_Velocity
1 -1 -5 4 3 -1 3 2 -1 -2 -3 -6 0 3 1 1 3 2 -3 -1 -1 0 2 -2 4 6 -1 -0 2 1 5 3 1 5 4 5 4 4 -0 -2 -2 -0 0 -4
4 1 -2 -2 -2 1 6 -2 1 1 0 2 0 0 2 2 2 2 1 1 -0 -1 -2 -3 -3 -4 -4 -1 7 2 0 -2 -6 -5 -2 1 -0 -1 -0 0 -1 -1 0 -2
1 3 4 3 -2 2 1 4 4 7 2 1 1 -1 0 0 -0 0 2 1 -1 -2 -2 0 -2 -1 -1 -4 2 3 3 -0 -4 -5 -3 -2 -2 -2 -1 -0 -1 -1 -3 -3
-1 -3 -3 -2 0 2 3 -2 5 -1 2 -0 1 -4 -3 -0 -0 1 -2 -3 -3 -0 5 2 -1 -2 -5 -6 -6 -3 -1 0 1 -0 -1 -3 -2 -2 -2 -2 -1 3 -1 -9
2 -1 -1 -1 -4 -5 -1 -2 0 0 -0 0 -1 -3 0 1 2 -2 -1 -0 -0 -1 -3 0 9 -2 2 -1 3 0 -5 -5 -3 -1 -1 -1 0 -1 -3 -6 -8 -0 11 9
-0 1 -0 -1 2 3 3 -1 0 1 1 -5 -1 1 2 -1 -1 -1 -2 -6 -3 -4 -3 0 -3 -1 7 3 -1 -2 1 2 -0 -2 -2 -2 1 4 6 8 6 6 4 -0
1 -1 2 0 -1 -0 2 1 -4 -3 -6 -5 -0 -4 6 2 3 2 -1 -1 -0 3 3 2 -1 3 -3 -1 -1 0 3 2 2 5 5 5 4 4 3 1 2 -0 4 6
-2 0 2 -0 -2 -2 -2 -0 1 -4 -3 1 -3 -6 3 2 3 2 1 -3 -0 -1 -1 -2 -4 -4 -5 -4 -2 0 0 -1 2 -0 -2 -1 0 1 -1 -1 -1 -1 -5 -6
1 -0 -0 1 1 -0 -1 -3 -0 1 1 1 -0 -0 -1 -4 -1 -1 -1 -1 -1 -2 -2 -1 -0 -1 -1 -1 1 0 -0 0 -2 -1 -2 -4 -2 -2 -3 -1 -1 -3 -3 -2
1 -1 -0 0 -1 0 -1 -1 -1 1 0 1 1 -1 -1 -0 -0 -0 0 -1 -2 -2 -0 0 1 2 2 -1 -2 -1 -1 -5 -4 -2 -0 1 3 3 -1 -4 -3 -3 -3 -4
1 1 0 1 2 1 0 0 -1 -1 -1 -2 1 3 0 1 0 1 0 1 -0 1 0 1 -0 -0 1 -0 -3 -3 -2 -1 1 -0 1 0 -0 0 -1 -4 -4 -2 -0 -1
1 1 0 1 1 2 1 1 1 0 1 -1 -2 5 1 1 -1 -2 -1 -2 0 -1 -2 -3 -3 -3 -2 -2 0 0 -0 -1 -2 -1 1 0 -1 -2 -1 0 -1 -3 -4 -5
2 1 -2 -1 -1 2 1 0 2 2 2 2 -3 -1 0 -0 -0 0 0 -0 -2 -2 -0 -1 -2 -3 -2 -2 -2 -1 -2 -2 -2 -2 -2 -4 -5 -3 -2 -4 -4 -1 -1 1
-1 0 0 1 -1 -2 -1 0 1 -0 -1 -1 -3 -0 -5 -1 -1 -3 -4 -3 -4 -3 -1 -2 -1 -2 -3 -2 -0 -2 1 -1 -2 -4 -3 -1 -3 -4 -2 -0 -1 -3 -2 -3
-1 0 -0 -0 -1 -0 1 2 -0 1 2 -0 3 -1 -4 -1 -2 -2 -2 -2 -2 -1 -2 -3 -3 0 1 -2 0 2 -2 -3 -1 -2 -4 -4 -2 -2 -2 -3 -6 -4 -2 -0
1 0 -1 -1 -1 -1 -2 -2 -0 -0 1 -3 -3 4 -3 -3 -3 -2 -1 -1 -2 -2 -1 -2 -3 1 -1 2 1 -2 -0 -1 -2 -4 -3 -2 0 -0 -4 -3 0 0 -1 -3
-3 -2 -1 -1 -2 -3 -5 7 -4 -2 -1 -2 -1 -1 -1 -2 -1 -2 -0 -1 1 -2 -1 0 -2 -1 -1 -3 -2 -0 -0 0 1 1 1 -2 -0 0 -4 -3 -4 -5 -5 -6
-1 -1 -3 -3 -1 -13 9 0 3 -2 1 -3 1 -2 0 2 2 2 -0 1 0 -1 -1 0 -1 -1 -1 1 3 4 -0 1 1 -1 -3 -2 -2 -2 -5 -4 -7 -3 -3 -2
-0 -1 -3 -11 -3 -1 2 3 -3 -2 10 -5 0 -4 -1 -2 -1 8 -4 2 -2 0 2 2 2 3 1 0 1 2 1 -0 -4 -3 -1 -6 -6 -3 -3 -2 -3 -4 -3 -2
1 -0 -2 1 -7 -8 6 5 0 -4 -1 -3 -4 -0 -2 -0 -3 9 -2 0 -1 -1 1 2 3 1 1 1 2 -1 -2 -1 1 -4 -5 -5 -3 -1 0 -4 -2 -4 -1 -1
-1 -3 -3 -6 -10 1 6 4 -0 -3 -5 5 5 1 1 -2 -7 4 4 0 0 2 2 2 2 0 -1 -1 -1 -1 -1 -3 -5 -2 -2 -3 -3 -2 -2 0 1 -2 -0 0
1 -3 3 1 -6 -1 4 1 -1 -4 -1 -1 2 1 1 2 -1 2 2 2 3 4 1 1 -1 -1 -1 -1 -0 -1 -4 -3 -3 -3 -3 -2 -1 -1 -1 -2 -1 0 -0 -1
-2 -5 -4 -2 4 -2 -3 1 0 1 1 0 2 -1 -0 2 -0 1 2 3 2 1 1 -1 1 1 -4 -2 -5 -1 1 -0 -1 -1 -3 -0 -0 -3 -0 -3 -1 0 -0 0
1 -2 -2 -6 11 -0 -7 -2 2 -1 2 1 1 4 2 1 1 -2 -2 -1 -2 -1 -1 1 0 -0 2 1 -2 -5 1 -2 -4 -1 -3 -2 -1 -2 0 -2 -3 -2 -0 -0
5 1 -3 -1 6 -4 5 0 -3 -1 -1 -1 -1 1 1 2 2 1 -2 0 -1 0 3 2 1 2 3 1 -0 -2 -0 -2 -1 -1 -2 -3 -2 -1 -1 -1 -2 -1 1 -0
2 1 -5 -4 -1 -4 8 4 -1 2 1 0 -1 -2 -2 -1 1 -2 2 1 -1 3 4 2 0 1 0 0 -3 -3 -4 -2 -2 -1 -1 -3 -2 -1 1 2 1 -2 -0 -1
Height
5779 5782 5785 5789 5790 5791 5794 5795 5798 5798 5800 5801 5802 5804 5805 5806 5808 5808 5808 5808 5808 5807 5807 5806 5805 5803 5801 5800 5797 5795 5791 5788 5785 5782 5778 5774 5769 5765 5762 5759 5756 5752 5747 5743
5781 5783 5786 5789 5790 5791 5793 5795 5797 5798 5799 5801 5801 5802 5804 5805 5806 5807 5807 5805 5805 5804 5803 5803 5802 5800 5798 5796 5793 5790 5787 5783 5779 5775 5770 5766 5762 5757 5754 5750 5746 5742 5738 5734
5779 5782 5784 5787 5789 5791 5792 5794 5797 5799 5799 5799 5800 5801 5802 5803 5804 5804 5804 5803 5802 5801 5800 5799 5796 5794 5793 5790 5788 5785 5782 5778 5773 5768 5763 5757 5752 5747 5743 5739 5735 5732 5727 5721
5778 5780 5782 5786 5788 5791 5792 5792 5794 5795 5797 5797 5798 5799 5799 5800 5801 5801 5800 5798 5797 5797 5797 5795 5793 5791 5788 5785 5782 5778 5774 5769 5763 5756 5751 5746 5742 5738 5734 5730 5726 5721 5715 5708
5780 5781 5783 5786 5789 5790 5791 5791 5792 5793 5793 5794 5795 5795 5796 5796 5797 5796 5794 5793 5793 5792 5791 5790 5787 5782 5781 5778 5776 5771 5764 5758 5753 5748 5744 5739 5735 5731 5726 5721 5716 5711 5705 5697
5779 5781 5783 5785 5787 5788 5789 5789 5789 5791 5791 5791 5792 5793 5793 5793 5793 5793 5792 5790 5789 5787 5787 5785 5780 5776 5773 5770 5766 5761 5758 5753 5747 5743 5739 5734 5729 5724 5719 5713 5706 5699 5689 5679
5776 5778 5781 5783 5784 5786 5787 5788 5788 5788 5788 5788 5788 5787 5789 5789 5789 5788 5787 5785 5783 5782 5781 5779 5774 5771 5766 5763 5760 5756 5752 5747 5742 5737 5732 5726 5719 5713 5706 5699 5691 5682 5673 5663
5774 5777 5779 5781 5782 5783 5783 5784 5785 5785 5785 5786 5785 5785 5786 5786 5785 5784 5783 5780 5779 5777 5776 5773 5770 5766 5761 5757 5754 5749 5744 5738 5734 5727 5720 5714 5708 5701 5694 5685 5677 5668 5659 5651
5773 5775 5777 5778 5779 5781 5781 5782 5783 5783 5782 5782 5782 5783 5783 5782 5782 5780 5779 5778 5775 5773 5770 5767 5764 5760 5756 5752 5746 5740 5735 5729 5724 5718 5710 5703 5696 5689 5681 5673 5664 5655 5645 5634
5771 5773 5774 5776 5777 5778 5779 5781 5781 5781 5780 5780 5780 5780 5780 5779 5779 5778 5776 5774 5771 5768 5765 5762 5759 5755 5750 5743 5737 5730 5723 5715 5709 5703 5697 5690 5683 5675 5666 5658 5648 5638 5625 5613
5769 5771 5774 5775 5776 5777 5779 5779 5780 5781 5780 5780 5779 5780 5778 5776 5775 5773 5771 5768 5765 5762 5759 5754 5749 5743 5738 5731 5724 5717 5710 5704 5697 5690 5683 5676 5669 5660 5651 5641 5631 5620 5609 5595
5767 5769 5771 5774 5775 5777 5777 5778 5779 5779 5779 5778 5777 5778 5775 5773 5771 5768 5765 5762 5758 5754 5749 5743 5738 5732 5726 5719 5713 5707 5700 5693 5685 5677 5669 5662 5654 5646 5637 5627 5616 5605 5593 5578
5766 5769 5770 5772 5775 5776 5776 5776 5776 5776 5775 5775 5774 5773 5771 5769 5766 5763 5759 5755 5751 5746 5741 5736 5730 5724 5717 5711 5704 5697 5689 5680 5673 5666 5658 5651 5642 5632 5622 5612 5601 5589 5575 5559
5765 5767 5769 5771 5772 5773 5773 5774 5773 5773 5772 5771 5770 5768 5765 5763 5760 5756 5753 5749 5744 5739 5734 5728 5722 5715 5708 5702 5694 5686 5677 5669 5662 5654 5646 5637 5628 5619 5609 5597 5584 5570 5553 5537
5763 5765 5766 5767 5768 5769 5770 5770 5770 5769 5768 5767 5766 5763 5758 5756 5753 5749 5745 5741 5736 5730 5724 5718 5711 5705 5698 5690 5683 5676 5667 5659 5650 5642 5634 5625 5615 5604 5592 5579 5565 5550 5533 5516
5760 5762 5764 5764 5764 5765 5765 5766 5765 5764 5762 5761 5759 5757 5752 5749 5745 5741 5737 5732 5726 5720 5714 5707 5700 5693 5686 5680 5673 5664 5655 5647 5639 5631 5622 5611 5600 5588 5575 5561 5546 5529 5511 5495
5757 5759 5759 5760 5760 5759 5761 5761 5759 5757 5756 5754 5752 5748 5745 5742 5738 5733 5728 5722 5716 5710 5703 5696 5688 5681 5675 5667 5659 5651 5644 5636 5627 5618 5606 5595 5583 5570 5555 5541 5526 5508 5491 5475
5754 5755 5755 5755 5755 5751 5757 5755 5752 5749 5747 5745 5743 5739 5735 5733 5728 5724 5717 5711 5705 5699 5691 5684 5676 5670 5663 5656 5648 5640 5632 5623 5613 5602 5591 5578 5566 5552 5536 5520 5503 5489 5474 5461
5750 5750 5749 5748 5749 5747 5747 5748 5745 5740 5739 5739 5733 5728 5725 5721 5718 5713 5705 5700 5694 5687 5680 5673 5667 5660 5652 5644 5635 5627 5617 5608 5597 5586 5574 5562 5548 5534 5518 5501 5486 5471 5458 5448
5743 5743 5743 5742 5739 5737 5738 5739 5736 5731 5728 5727 5722 5719 5714 5710 5707 5702 5694 5688 5682 5675 5669 5663 5656 5648 5639 5630 5621 5612 5603 5593 5582 5570 5557 5543 5530 5516 5500 5484 5470 5457 5446 5437
5735 5734 5734 5732 5730 5728 5729 5727 5725 5721 5721 5714 5711 5707 5703 5699 5694 5690 5682 5676 5670 5664 5657 5650 5641 5633 5625 5616 5608 5598 5588 5578 5567 5554 5541 5528 5514 5499 5483 5470 5457 5445 5436 5429
5729 5727 5727 5724 5722 5719 5720 5717 5714 5710 5706 5702 5699 5695 5690 5686 5681 5676 5670 5665 5658 5651 5643 5635 5627 5619 5611 5603 5594 5584 5574 5563 5551 5539 5526 5512 5496 5482 5469 5457 5445 5436 5428 5422
5719 5719 5717 5716 5715 5710 5706 5703 5700 5698 5694 5691 5687 5682 5677 5673 5667 5663 5658 5652 5644 5636 5629 5621 5614 5605 5596 5587 5579 5569 5558 5548 5536 5524 5510 5495 5482 5468 5455 5445 5435 5427 5421 5415
5708 5707 5706 5704 5704 5698 5694 5691 5690 5685 5681 5678 5674 5670 5666 5660 5654 5648 5643 5637 5630 5622 5615 5608 5601 5592 5583 5573 5564 5554 5545 5533 5521 5507 5493 5480 5468 5455 5444 5434 5426 5419 5413 5408
5698 5697 5694 5690 5689 5685 5684 5682 5677 5674 5671 5667 5663 5659 5654 5648 5642 5636 5630 5623 5616 5609 5603 5596 5587 5579 5570 5560 5550 5540 5530 5518 5505 5491 5478 5466 5454 5443 5433 5425 5418 5412 5407 5402
5688 5685 5680 5678 5678 5675 5674 5670 5666 5663 5660 5656 5651 5646 5641 5635 5629 5622 5617 5610 5603 5597 5590 5582 5573 5566 5557 5546 5536 5525 5514 5502 5490 5478 5465 5452 5442 5432 5424 5417 5411 5406 5401 5396